• In Belarus
  • List of Countries
  • For 7 days
  • Water Temperature
  • Satellite Maps
  • Weather Map
  • Weather Widgets
  • user-avatar
    Login

    Hourly Weather Leun

    Today, 20 May, Monday

    Time Temperature Precipitation Wind Pressure Humidity
    00:00 -1°C° 0 mm 2 mps 740 mmHg 94%
    01:00 -1°C° 0 mm 2 mps 740 mmHg 95%
    02:00 -1°C° 0 mm 2 mps 740 mmHg 96%
    03:00 -2°C° 0 mm 2 mps 740 mmHg 96%
    04:00 -2°C° 0 mm 2 mps 740 mmHg 97%
    05:00 -1°C° 0 mm 2 mps 741 mmHg 94%
    06:00 +1°C° 0 mm 3 mps 741 mmHg 92%
    07:00 +2°C° 0 mm 3 mps 741 mmHg 89%
    08:00 +2°C° 0.1 mm 3 mps 741 mmHg 87%
    09:00 +3°C° 0.1 mm 4 mps 741 mmHg 85%
    10:00 +3°C° 0.1 mm 4 mps 741 mmHg 83%
    11:00 +4°C° 0.2 mm 4 mps 741 mmHg 80%
    12:00 +5°C° 0.2 mm 4 mps 741 mmHg 78%
    13:00 +6°C° 0.2 mm 4 mps 741 mmHg 75%
    14:00 +6°C° 0.5 mm 4 mps 741 mmHg 73%
    15:00 +7°C° 0.5 mm 4 mps 741 mmHg 70%
    16:00 +7°C° 0.5 mm 4 mps 741 mmHg 68%
    17:00 +8°C° 0.2 mm 3 mps 741 mmHg 71%
    18:00 +7°C° 0.2 mm 3 mps 741 mmHg 75%
    19:00 +7°C° 0.2 mm 2 mps 742 mmHg 79%
    20:00 +5°C° 0 mm 2 mps 742 mmHg 82%
    21:00 +4°C° 0 mm 2 mps 742 mmHg 86%
    22:00 +2°C° 0 mm 2 mps 742 mmHg 90%
    23:00 +2°C° 0 mm 2 mps 742 mmHg 90%

    Tomorrow, 21 May, Tuesday

    Time Temperature Precipitation Wind Pressure Humidity
    00:00 +2°C° 0 mm 2 mps 742 mmHg 90%
    01:00 +1°C° 0 mm 2 mps 742 mmHg 90%
    02:00 +1°C° 0 mm 2 mps 743 mmHg 90%
    03:00 +1°C° 0 mm 2 mps 743 mmHg 90%
    04:00 +1°C° 0 mm 2 mps 743 mmHg 90%
    05:00 +2°C° 0 mm 2 mps 743 mmHg 85%
    06:00 +3°C° 0 mm 2 mps 744 mmHg 80%
    07:00 +5°C° 0 mm 2 mps 744 mmHg 75%
    08:00 +5°C° 0 mm 3 mps 744 mmHg 65%
    09:00 +7°C° 0 mm 4 mps 744 mmHg 55%
    10:00 +9°C° 0 mm 5 mps 744 mmHg 45%
    11:00 +9°C° 0 mm 5 mps 744 mmHg 43%
    12:00 +10°C° 0 mm 5 mps 744 mmHg 42%
    13:00 +12°C° 0 mm 5 mps 744 mmHg 40%
    14:00 +12°C° 0 mm 5 mps 744 mmHg 40%
    15:00 +12°C° 0 mm 5 mps 744 mmHg 40%
    16:00 +12°C° 0 mm 5 mps 744 mmHg 40%
    17:00 +11°C° 0 mm 4 mps 744 mmHg 45%
    18:00 +10°C° 0 mm 3 mps 744 mmHg 50%
    19:00 +10°C° 0 mm 2 mps 744 mmHg 55%
    20:00 +8°C° 0 mm 2 mps 744 mmHg 60%
    21:00 +6°C° 0 mm 2 mps 744 mmHg 65%
    22:00 +5°C° 0 mm 2 mps 744 mmHg 71%
    23:00 +4°C° 0 mm 2 mps 744 mmHg 72%

    Day after tomorrow, 22 May, Wednesday

    Time Temperature Precipitation Wind Pressure Humidity
    00:00 +4°C° 0 mm 1 mps 744 mmHg 73%
    01:00 +4°C° 0 mm 1 mps 744 mmHg 74%
    02:00 +4°C° 0 mm 1 mps 744 mmHg 76%
    03:00 +3°C° 0 mm 1 mps 744 mmHg 77%
    04:00 +3°C° 0 mm 1 mps 744 mmHg 78%
    05:00 +5°C° 0 mm 1 mps 744 mmHg 73%
    06:00 +7°C° 0 mm 1 mps 744 mmHg 67%
    07:00 +8°C° 0 mm 2 mps 745 mmHg 61%
    08:00 +9°C° 0 mm 2 mps 744 mmHg 54%
    09:00 +11°C° 0 mm 3 mps 744 mmHg 47%
    10:00 +13°C° 0 mm 3 mps 744 mmHg 40%
    11:00 +13°C° 0 mm 3 mps 744 mmHg 38%
    12:00 +14°C° 0 mm 3 mps 744 mmHg 37%
    13:00 +16°C° 0 mm 3 mps 743 mmHg 36%
    14:00 +16°C° 0 mm 3 mps 743 mmHg 36%
    15:00 +15°C° 0 mm 4 mps 743 mmHg 37%
    16:00 +15°C° 0 mm 4 mps 743 mmHg 37%
    17:00 +14°C° 0 mm 3 mps 742 mmHg 44%
    18:00 +14°C° 0 mm 2 mps 742 mmHg 50%
    19:00 +14°C° 0 mm 2 mps 742 mmHg 56%
    20:00 +12°C° 0 mm 2 mps 742 mmHg 60%
    21:00 +10°C° 0 mm 2 mps 742 mmHg 65%
    22:00 +9°C° 0 mm 2 mps 742 mmHg 69%
    23:00 +8°C° 0 mm 2 mps 742 mmHg 71%

    23 May, Thursday

    Time Temperature Precipitation Wind Pressure Humidity
    00:00 +8°C° 0 mm 2 mps 741 mmHg 73%
    01:00 +7°C° 0 mm 2 mps 741 mmHg 74%
    02:00 +7°C° 0 mm 2 mps 740 mmHg 77%
    03:00 +8°C° 0 mm 2 mps 740 mmHg 80%
    04:00 +8°C° 0 mm 2 mps 739 mmHg 83%
    05:00 +8°C° 0.9 mm 2 mps 738 mmHg 87%
    06:00 +9°C° 0.9 mm 3 mps 738 mmHg 91%
    07:00 +9°C° 0.9 mm 3 mps 737 mmHg 95%
    08:00 +9°C° 0.2 mm 3 mps 736 mmHg 95%
    09:00 +9°C° 0.2 mm 3 mps 736 mmHg 94%
    10:00 +10°C° 0.2 mm 3 mps 735 mmHg 94%
    11:00 +11°C° 0.1 mm 3 mps 735 mmHg 93%
    12:00 +12°C° 0.1 mm 3 mps 734 mmHg 92%
    13:00 +13°C° 0.1 mm 3 mps 734 mmHg 92%
    14:00 +13°C° 0.4 mm 4 mps 734 mmHg 90%
    15:00 +14°C° 0.4 mm 5 mps 733 mmHg 88%
    16:00 +14°C° 0.4 mm 5 mps 733 mmHg 86%
    17:00 +14°C° 0.5 mm 5 mps 733 mmHg 87%
    18:00 +14°C° 0.5 mm 5 mps 733 mmHg 88%
    19:00 +14°C° 0.5 mm 4 mps 733 mmHg 89%
    20:00 +13°C° 0.6 mm 4 mps 733 mmHg 90%
    21:00 +12°C° 0.6 mm 4 mps 734 mmHg 91%
    22:00 +10°C° 0.6 mm 3 mps 734 mmHg 92%
    23:00 +7°C° 0 mm 4 mps 735 mmHg 92%

    24 May, Friday

    Time Temperature Precipitation Wind Pressure Humidity
    00:00 +5°C° 0 mm 4 mps 735 mmHg 92%
    01:00 +3°C° 0 mm 4 mps 736 mmHg 92%
    02:00 +1°C° 0 mm 4 mps 737 mmHg 92%
    03:00 +1°C° 0 mm 3 mps 737 mmHg 92%
    04:00 -1°C° 0 mm 2 mps 738 mmHg 92%
    05:00 +1°C° 0 mm 3 mps 739 mmHg 86%
    06:00 +2°C° 0 mm 3 mps 740 mmHg 80%
    07:00 +3°C° 0 mm 3 mps 740 mmHg 74%
    08:00 +4°C° 0 mm 3 mps 741 mmHg 65%
    09:00 +6°C° 0 mm 4 mps 741 mmHg 55%
    10:00 +7°C° 0 mm 4 mps 741 mmHg 46%
    11:00 +8°C° 0 mm 4 mps 741 mmHg 44%
    12:00 +10°C° 0 mm 4 mps 741 mmHg 42%
    13:00 +11°C° 0 mm 4 mps 741 mmHg 40%
    14:00 +10°C° 0 mm 5 mps 741 mmHg 40%
    15:00 +10°C° 0 mm 5 mps 741 mmHg 40%
    16:00 +10°C° 0 mm 5 mps 742 mmHg 40%
    17:00 +11°C° 0 mm 4 mps 742 mmHg 44%
    18:00 +10°C° 0 mm 3 mps 742 mmHg 49%
    19:00 +9°C° 0 mm 2 mps 742 mmHg 53%
    20:00 +8°C° 0 mm 2 mps 743 mmHg 58%
    21:00 +6°C° 0 mm 2 mps 743 mmHg 63%
    22:00 +4°C° 0 mm 2 mps 744 mmHg 68%
    23:00 +3°C° 0 mm 2 mps 744 mmHg 68%

    25 May, Saturday

    Time Temperature Precipitation Wind Pressure Humidity
    00:00 +3°C° 0 mm 1 mps 744 mmHg 68%
    01:00 +3°C° 0 mm 1 mps 744 mmHg 69%
    02:00 +2°C° 0 mm 1 mps 745 mmHg 69%
    03:00 +2°C° 0 mm 1 mps 745 mmHg 70%
    04:00 +1°C° 0 mm 1 mps 745 mmHg 71%
    05:00 +2°C° 0 mm 2 mps 746 mmHg 64%
    06:00 +4°C° 0 mm 2 mps 746 mmHg 58%
    07:00 +4°C° 0 mm 3 mps 746 mmHg 51%
    08:00 +7°C° 0 mm 3 mps 746 mmHg 47%
    09:00 +7°C° 0 mm 4 mps 747 mmHg 43%
    10:00 +8°C° 0 mm 4 mps 747 mmHg 39%
    11:00 +8°C° 0 mm 4 mps 747 mmHg 38%
    12:00 +10°C° 0 mm 4 mps 747 mmHg 36%
    13:00 +11°C° 0 mm 4 mps 747 mmHg 35%
    14:00 +11°C° 0 mm 4 mps 747 mmHg 36%
    15:00 +12°C° 0 mm 4 mps 747 mmHg 36%
    16:00 +12°C° 0 mm 4 mps 747 mmHg 36%
    17:00 +11°C° 0 mm 3 mps 747 mmHg 41%
    18:00 +10°C° 0 mm 2 mps 748 mmHg 46%
    19:00 +10°C° 0 mm 2 mps 748 mmHg 51%
    20:00 +9°C° 0 mm 1 mps 748 mmHg 55%
    21:00 +7°C° 0 mm 1 mps 748 mmHg 60%
    22:00 +5°C° 0 mm 1 mps 749 mmHg 64%
    23:00 +4°C° 0 mm 1 mps 749 mmHg 65%
    Show more